Volver al catálogo

CZ-4 DEB

ActivoPO
NORAD 35326·DEBRIS·🇨🇳 China

Lanzado Oct 14, 1999 desde Taiyuan Satellite Launch Center

Loading…

Próximos Pases (próximas 24 horas)

TLE

ActualizadoSource: Space-Track

Época: Sep 14, 2026, 08:18 UTC

1 35326U 99057SE  26257.34594922 -.00000142  00000-0 -56096-4 0  9998
2 35326  98.4178 113.3279 0232851  68.5950 293.9885 14.00354406666243

Sigue CZ-4 DEB en tiempo real con AllMySat

Download on the App Store